Flag for Austria Weather past 2 weeks in St. Pölten, Lower Austria, Austria

Now
55 °F

Partly sunny.


Feels Like: 53 °F
Forecast: 47 / 60 °F
Wind: 8 mph from Northwest

Location: Tulln Airport

Current Time: May 26, 2015 at 6:47:59 PM

Latest Report: May 26, 2015 at 5:50 PM


Visibility: 7 mi

Pressure: 29.92 "Hg

Humidity: 82%

Dew point: 50 °F

Location of St. PöltenLocation

Historic Weather in St. Pölten — Graph

°F

St. Pölten temperature yesterday

Maximum temperature yesterday: 68 °F (at 12:50 PM)
Minimum temperature yesterday: 52 °F (at 5:50 AM)
Average temperature yesterday: 62 °F

Past Weeks' High & Low Weather Summary

 TemperatureHumidityPressure
High79 °F (May 12, 2:50 PM)100% (May 14, 6:50 AM)30.30 "Hg (May 14, 6:50 AM)
Low41 °F (May 12, 5:50 AM)26% (May 12, 2:50 PM)29.71 "Hg (May 19, 4:50 AM)
Average60 °F76%30.01 "Hg
* Reported May 11 5:50 PM — May 26 5:50 PM, St. Pölten, Weather by CustomWeather, © 2015

Note: Actual official high and low records may vary slightly from our data, if they occured in-between our weather recording intervals... More about our weather records

Advertising

St. Pölten weather history for previous 24 hours

 ConditionsComfort  
Time TempWeatherWind HumidityBarometerVisibility
5:50 PM
Tue, May 26
55 °FPartly sunny.8 mph82%29.92 "Hg7 mi
4:50 PM57 °FLight rain. Broken clouds.12 mph82%29.92 "Hg7 mi
3:50 PM59 °FLight rain. Broken clouds.12 mph88%29.89 "Hg6 mi
2:50 PM59 °FLight rain. Broken clouds.9 mph88%29.89 "Hg6 mi
1:50 PM57 °FLight rain. Partly sunny.8 mph100%29.89 "Hg4 mi
12:50 PM57 °FLight rain. Partly sunny.6 mph100%29.89 "Hg5 mi
11:50 AM57 °FLight rain. Partly sunny.10 mph100%29.86 "Hg5 mi
10:50 AM57 °FLight rain. Partly sunny.10 mph94%29.86 "Hg6 mi
9:50 AM57 °FLight rain. Broken clouds.10 mph94%29.86 "Hg7 mi
8:50 AM55 °FSprinkles. Broken clouds.12 mph100%29.83 "Hg7 mi
7:50 AM55 °FSprinkles. Partly sunny.12 mph94%29.83 "Hg9 mi
6:50 AM55 °FSprinkles. Partly sunny.7 mph94%29.83 "Hg9 mi
5:50 AM55 °FSprinkles. Partly cloudy.9 mph94%29.83 "Hg9 mi
10:50 PM
Mon, May 25
57 °FPartly cloudy.2 mph94%29.83 "Hg9 mi
9:50 PM59 °FSprinkles. Passing clouds.3 mph88%29.83 "Hg9 mi
8:50 PM61 °FBroken clouds.6 mph83%29.80 "Hg9 mi
6:50 PM63 °FPartly sunny.3 mph77%29.83 "Hg9 mi
Weather by CustomWeather, © 2015

See weather overviewHow to use our weather pages